Weather History for Khon Kaen, Thailand

Change the Weather History Date:

Friday, September 21, 2012

  Actual Average Record
Temperature  
Mean Temperature 82 °F -  
Max Temperature 90 °F 89 °F - ()
Min Temperature 75 °F 73 °F - ()
Cooling Degree Days 18    
Growing Degree Days 32 (Base 50)    
Moisture  
Dew Point 78 °F    
Average Humidity 86    
Maximum Humidity 100    
Minimum Humidity 61    
Precipitation  
Precipitation 0.00 in 0.20 in - ()
Sea Level Pressure  
Sea Level Pressure 29.77 in    
Wind  
Wind Speed 3 mph ()    
Max Wind Speed 10 mph    
Max Gust Speed -    
Visibility 6.2 miles    
Events Thunderstorm    
T = Trace of Precipitation, MM = Missing Value Source: Averaged Metar Reports

Daily Weather History Graph

Daily Weather History Graph

Search for Another Location

Airport:

Trip Planner

Search our weather history database for the weather conditions in past years. The results will help you decide how hot, cold, wet, or windy it might be!

Date:

Astronomy

Sep. 21, 2012 Rise Set
Actual Time 5:57 AM ICT 6:05 PM ICT
Civil Twilight 5:36 AM ICT 6:27 PM ICT
Nautical Twilight 5:11 AM ICT 6:52 PM ICT
Astronomical Twilight 4:45 AM ICT 7:17 PM ICT
Moon 10:53 AM ICT (9/21) 10:27 PM ICT (9/21)
Length of Visible Light 12h 51m
Length of Day
12h 08m
Waxing Crescent, 32% of the Moon is Illuminated
Sep 21
Waxing Crescent
Sep 23
First Quarter
Sep 30
Full
Oct 8
Last Quarter
Oct 15
New

Hourly Weather History & Observations

Time (ICT) Temp. Heat Index Dew Point Humidity Pressure Visibility Wind Dir Wind Speed Gust Speed Precip Events Conditions
1:00 AM 79 °F - 76 °F 89% 29.79 in 6 mi Calm Calm - -   Clear
4:00 AM 77.0 °F - 77.0 °F 100% 29.77 in 6.2 mi Variable 1.2 mph - N/A   Mostly Cloudy
6:00 AM 77.0 °F - 77.0 °F 100% 29.80 in 6.2 mi NNE 4.6 mph - N/A   Mostly Cloudy
7:00 AM 79 °F - 76 °F 87% 29.81 in 6 mi NNE 3.5 mph - -   Overcast
7:00 AM 78.8 °F - 77.0 °F 94% 29.83 in 6.2 mi NNE 4.6 mph - N/A   Mostly Cloudy
8:00 AM 80.6 °F 88.1 °F 78.8 °F 94% 29.83 in 6.2 mi North 4.6 mph - N/A   Mostly Cloudy
9:00 AM 82.4 °F 94.0 °F 80.6 °F 94% 29.83 in 6.2 mi NNW 3.5 mph - N/A   Mostly Cloudy
10:00 AM 84.2 °F 98.3 °F 80.6 °F 89% 29.83 in 6.2 mi NNW 3.5 mph - N/A   Mostly Cloudy
11:00 AM 86.0 °F 99.3 °F 78.8 °F 79% 29.80 in 6.2 mi West 4.6 mph - N/A   Mostly Cloudy
12:00 PM 87.8 °F 102.5 °F 78.8 °F 75% 29.77 in 6.2 mi Variable 6.9 mph - N/A   Mostly Cloudy
1:00 PM 86 °F - 74 °F 61% 29.75 in 6 mi SW 8.1 mph - - Thunderstorm Thunderstorm
1:00 PM 82.4 °F 90.9 °F 77.0 °F 84% 29.77 in 6.2 mi SSW 10.4 mph - N/A Thunderstorm Thunderstorm
2:00 PM 82.4 °F 90.9 °F 77.0 °F 84% 29.74 in 6.2 mi SSW 8.1 mph - N/A   Mostly Cloudy
3:00 PM 86.0 °F 99.3 °F 78.8 °F 79% 29.71 in 6.2 mi Variable 5.8 mph - N/A   Scattered Clouds
4:00 PM 86.0 °F 99.3 °F 78.8 °F 79% 29.71 in 6.2 mi SSW 4.6 mph - N/A   Scattered Clouds
5:00 PM 84.2 °F 96.1 °F 78.8 °F 84% 29.71 in 6.2 mi WSW 4.6 mph - N/A   Mostly Cloudy
6:00 PM 82.4 °F 92.4 °F 78.8 °F 89% 29.74 in 6.2 mi Variable 1.2 mph - N/A   Mostly Cloudy
7:00 PM 83 °F - 78 °F 82% 29.72 in 6 mi NE 2.3 mph - -   Partly Cloudy
7:00 PM 82.4 °F 92.4 °F 78.8 °F 89% 29.74 in 6.2 mi NNE 2.3 mph - N/A   Mostly Cloudy
8:00 PM 80.6 °F 88.1 °F 78.8 °F 94% 29.77 in 6.2 mi West 3.5 mph - N/A   Scattered Clouds